NOAA 16 DEB, 41217

Orbit data source: Space-Track

NOAA 16 DEB, 41217 is space debris in SSO originally from a launch on Thu, 21 Sep 2000 UTC launched from the Air Force Western Test Range (AFWTR). Debris objects in space refer to the collection of defunct objects orbiting the Earth. Examples of debris include non-operational satellites, rocket bodies, and fragments generated from explosions, collisions, or faulty payload assembly.

Loading next visibility...
Identifier
41217, 2000-055DW
Orbit
SSO
Country
Flag of USUS
Related business
Manufacturer
Unknown
Mission
Spacecraft
Bus & Motor
Unknown
Mass
Unknown
Launch date (UTC)
2000-09-21 (26 years ago)
Launch vehicle
Unknown
Launch site
Air Force Western Test Range (AFWTR)
Object type
Payload
Rocket body
Debris
Shape & HBR
Unknown shape, 0.1 m
Radar Cross Section
Medium (>0.1 m² and <1 m²)

Expand to show TLE details & history
Last TLE update: 14 hours ago

TLE from 14 hours ago
0 NOAA 16 DEB
1 41217U 00055DW  26237.31928778  .00002328  00000-0  11196-2 0  9995
2 41217  98.6881 264.3022 0040469  67.7818 292.7644 14.19328656549182
Epoch: 2026-08-25T07:39Z
TLE epoch observation values (Epoch: 2026-08-25T07:39:46.464Z)
Latitude
0.00001°
Longitude
175.77025°
Altitude
819.353 km
Speed
7.449 km/s
True Right ascension
17h 37m 12s
True Declination
0° 00' 00"
Sunlit
Object was in daylight at epoch
Visualization orbit readout
Latitude
Unknown
Longitude
Unknown
Altitude
Unknown
Speed
Unknown
Apparent Right ascension
Unknown
Apparent Declination
Unknown
Sunlit
N/A
Visualization observer readout
Local Sidereal Time
12:46:10
Azimuth
Unknown
Elevation
Unknown
Doppler factor
Unknown
Orbital elements
Apogee altitude
853.932 km
Perigee altitude
795.633 km
Semi-major axis
7,202.92 km
Eccentricity
0.00405
Inclination
98.6881°
RAAN
264.3022°
Arg. of periapsis
67.7818°
True anomaly
292.33595°
Mean anomaly
292.7644°
Eccentric anomaly
292.55026°
Mean motion
3.55042 °/min
Orbital period
101.4 mins
BSTAR
0.0011196
Loading maneuver chart data...
Computing Atmospheric mass density...
Loading historical data...
Loading historical data...
Loading historical data...
Loading historical data...
Loading historical data...
Loading historical data...
Loading historical data...

Documentation

Showing up to 5 results
|